Location: Amstall
(48.3833°N, 15.3167°E)
Time: 02:56:30
(UTC+00:00)

Daily predictions for brighter satellites

Satellite Brightness Start Highest point End
(mag) Time Altitude Azimuth Time Altitude Azimuth Time Altitude Azimuth
SL-16 R/B 3.8 00:33:47 30° NNE 00:33:47 30° NNE 00:36:39 10° NNE
ADEOS II 4.0 00:28:02 10° NNE 00:30:43 25° NE 00:30:43 25° NE
CZ-2D R/B 3.5 00:49:30 10° NNE 00:52:32 35° NNE 00:52:32 35° NNE
Cosmos 1943 4.0 01:11:08 47° NE 01:11:08 47° NE 01:15:10 10° NNE
Cosmos 1603 4.5 01:11:56 49° NE 01:11:56 49° NE 01:16:11 10° NNE
Resurs 1-4 Rocket 3.4 01:07:59 10° N 01:10:55 33° N 01:10:55 33° N
Cosmos 2366 rocket 4.2 01:32:09 61° NNW 01:32:09 61° NNW 01:37:19 10° N
ATLAS 5 CENTAUR R/B 3.4 01:39:05 24° NNE 01:39:05 24° NNE 01:41:16 10° NNE
Cosmos 2237 Rocket 4.4 01:39:49 13° NW 01:40:14 13° NNW 01:42:50 10° N
Meteor 1-20 Rocket 4.3 01:41:01 10° NNW 01:45:58 68° N 01:45:58 68° N
Cosmos 2218 Rocket 4.3 01:49:08 52° NW 01:49:08 52° NW 01:54:19 10° N
SL-16 R/B 4.0 01:52:16 23° NW 01:52:16 23° NW 01:54:50 10° NNW
Cosmos 1782 4.3 01:50:04 35° ENE 01:50:04 35° ENE 01:52:53 10° NNE
Cosmos 44 4.1 01:51:23 42° ENE 01:51:23 42° ENE 01:54:35 10° NE
IDEFIX/ARIANE 42P 3.2 01:49:00 10° N 01:52:59 45° NNW 01:52:59 45° NNW
Cosmos 1000 Rocket 4.5 01:49:05 10° N 01:55:22 80° E 01:57:35 43° SSE
Cosmos 1821 Rocket 3.9 01:54:43 70° S 01:55:31 86° E 02:01:49 10° N
Cosmos 614 Rocket 3.9 01:56:44 10° NNW 02:01:32 77° NNE 02:01:32 77° NNE
Cosmos 2123 Rocket 4.4 01:55:48 10° N 02:01:58 60° ENE 02:08:09 10° SSE
Cosmos 1743 Rocket 4.5 01:59:23 10° N 02:03:40 47° ENE 02:05:22 31° SE
BREEZE-M DEB (TANK) 3.5 02:09:02 48° SSE 02:09:02 48° SSE 02:16:35 10° ESE
BREEZE-M R/B 4.2 02:07:45 51° S 02:08:51 59° SE 02:19:18 10° ENE
Cosmos 2251 Rocket 4.3 02:05:34 10° NNW 02:10:42 50° ENE 02:15:48 10° SE
ADEOS II 3.0 02:07:41 10° N 02:11:38 35° NW 02:11:38 35° NW
Helios 1B rocket 4.1 02:09:07 10° NNE 02:12:44 30° E 02:14:28 22° SE
Cosmos 1500 Rocket 3.8 02:09:24 10° N 02:13:51 68° E 02:14:36 56° SE
SL-16 R/B 4.0 02:15:39 17° NW 02:16:12 17° NW 02:19:52 10° N
Cosmos 2221 3.5 02:20:17 35° NNW 02:20:17 35° NNW 02:23:02 10° N
USA 234 4.5 02:13:07 10° ENE 02:18:55 33° SE 02:22:40 19° S
CZ-2C R/B 3.8 02:15:23 10° SE 02:20:14 41° ENE 02:25:10 10° N
Cosmos 1934 Rocket 4.1 02:20:45 22° S 02:24:59 75° E 02:31:21 10° NNE
Cosmos 1727 Rocket 4.4 02:20:52 10° NNW 02:26:23 41° W 02:26:23 41° W
Cosmos 1812 3.1 02:28:38 56° N 02:28:38 56° N 02:31:44 10° N
Tiangong 0.6 02:30:03 14° SE 02:30:03 14° SE 02:30:39 10° ESE
ALOS 2.3 02:24:23 10° NNE 02:29:04 78° ESE 02:30:24 47° S
CZ-2D R/B 3.9 02:30:48 10° NNW 02:33:50 18° NW 02:33:50 18° NW
Meteor 1-5 Rocket 4.1 02:29:43 10° N 02:35:15 84° E 02:40:35 10° SSE
Sich 1 3.4 02:31:18 10° N 02:35:36 62° ENE 02:39:50 10° SSE
IRS-1D 3.7 02:31:18 10° N 02:36:29 53° WNW 02:37:16 49° W
Meteor 1-26 Rocket 4.1 02:35:39 33° SSW 02:38:20 84° W 02:43:58 10° N
Cosmos 1340 3.5 02:41:29 36° NNW 02:41:29 36° NNW 02:44:06 10° N
Cosmos 1656 3.9 02:35:03 10° NNW 02:40:47 74° ENE 02:46:29 10° SE
CBERS-1 3.9 02:36:17 10° NNE 02:41:25 76° WNW 02:43:15 40° SSW
CZ-2C R/B 2.5 02:36:33 10° NNE 02:41:42 82° ESE 02:44:27 27° S
Cosmos 1140 Rocket 3.9 02:36:56 10° NNW 02:42:05 63° ENE 02:47:15 10° SE
Cosmos 1932 4.4 02:41:05 38° SW 02:43:43 85° NW 02:50:13 10° NE
BREEZE-M DEB (TANK) 1.7 02:49:04 75° NE 02:49:04 75° NE 02:53:09 10° E
Resurs 1-4 Rocket 4.1 02:50:01 10° NNW 02:51:59 12° NW 02:51:59 12° NW
Cosmos 1842 Rocket 4.4 02:53:12 33° WNW 02:53:12 33° WNW 02:56:45 10° N
SL-19 R/B 4.4 02:47:05 10° NNE 02:53:23 75° WNW 02:57:36 21° SSW
Cosmos 1943 4.5 02:52:57 23° WNW 02:54:11 24° NW 02:58:45 10° N
Cosmos 1484 Rocket 3.9 02:52:10 10° NNE 02:56:01 45° E 02:59:50 10° S
Cosmos 2084 3.2 02:59:29 26° NW 03:01:36 70° SW 03:05:48 10° SSE
X-37B 3.1 03:03:54 10° SSE 03:04:32 11° SSE 03:05:23 10° SE
Cosmos 1536 4.4 03:02:44 10° N 03:06:31 37° ENE 03:10:17 10° SE
PAYLOAD A 3.8 03:03:28 10° N 03:08:09 62° WNW 03:11:08 22° SW
Cosmos 407 Rocket 3.5 03:03:38 10° NNW 03:08:57 88° WSW 03:14:18 10° SSE
Meteor 2-6 Rocket 4.1 03:10:13 10° SSW 03:15:37 86° W 03:21:07 10° N
Cosmos 1833 Rocket 3.5 03:10:47 10° S 03:16:13 52° ESE 03:21:42 10° NE
ATLAS CENTAUR R/B 4.3 03:15:17 10° SSE 03:18:37 19° ESE 03:21:59 10° ENE
Cosmos 1356 4.0 03:16:40 10° S 03:19:49 53° E 03:23:01 10° NNE
Cosmos 1805 Rocket 4.0 03:17:01 10° NNW 03:21:07 38° W 03:25:10 10° SSW
CZ-2D R/B 3.3 03:17:41 10° NNE 03:21:40 89° ESE 03:25:38 10° SSW
Cosmos 2082 Rocket 4.5 03:17:54 10° SSE 03:22:20 24° ESE 03:26:46 10° NE
ATLAS 5 CENTAUR R/B 3.7 03:20:41 10° NW 03:23:03 14° NNW 03:25:38 10° NNE
Cosmos 1782 4.3 03:25:35 19° WNW 03:25:35 19° WNW 03:28:25 10° NNW
ARIANE 5 R/B 2.4 03:20:28 10° N 03:25:32 70° WNW 03:30:30 10° SSW
CZ-2C R/B 3.9 03:22:52 10° NNE 03:28:41 62° E 03:34:18 10° S
BREEZE-M DEB (TANK) 3.1 03:24:40 18° W 03:28:52 60° SSW 03:31:29 10° ESE
FENGYUN 3A 4.5 03:24:15 10° N 03:28:57 32° WNW 03:31:51 19° WSW
Cosmos 1515 3.8 03:27:52 10° S 03:31:35 77° E 03:35:20 10° NNE
Cosmos 44 4.3 03:29:48 19° WNW 03:31:46 26° NW 03:35:28 10° NNE
Meteor 1-29 3.0 03:28:46 10° NNE 03:32:03 73° ESE 03:35:20 10° S
Cosmos 1633 Rocket 2.9 03:27:51 10° N 03:32:13 85° W 03:36:33 10° S
Meteor 1-10 Rocket 4.2 03:27:36 10° S 03:33:09 90° W 03:38:47 10° NNE
Meteor 1-27 Rocket 4.4 03:27:43 10° S 03:33:19 60° E 03:39:04 10° NNE
IRS-1C 4.3 03:29:00 10° N 03:34:13 54° WNW 03:39:23 10° SW
Cosmos 1346 Rocket 3.0 03:30:47 10° S 03:34:45 72° E 03:38:44 10° NNE
USA 305 4.3 03:31:44 10° SSW 03:35:23 31° SE 03:39:04 10° ENE
Lacrosse 4 Rocket 4.3 03:34:10 10° N 03:36:18 13° NNE 03:38:26 10° ENE
Cosmos 1697 Rocket 2.7 03:31:04 10° NNW 03:36:45 88° WSW 03:42:25 10° SSE
Cosmos 1666 Rocket 3.6 03:35:40 10° NNW 03:40:03 59° W 03:44:26 10° S
NOSS 8 (A) 4.2 03:38:56 19° SW 03:41:11 64° NW 03:44:05 10° NE
ERBS 2.9 03:40:19 13° SSW 03:42:43 42° SE 03:45:30 10° ENE
Cosmos 676 Rocket 4.2 03:37:36 10° NNW 03:42:50 74° ENE 03:48:03 10° SSE
Aureole 3 3.9 03:43:18 10° SW 03:47:28 37° WNW 03:50:54 10° N
CZ-2C R/B 3.2 03:43:47 10° NNE 03:47:28 61° ESE 03:51:12 10° S
Meteor 1-4 Rocket 2.5 03:43:52 10° N 03:47:29 87° E 03:51:07 10° SSE
SKYMED 2 4.4 03:43:17 10° SSE 03:47:32 56° ENE 03:51:48 10° N
Helios 1B rocket 3.4 03:44:19 10° N 03:47:48 28° WNW 03:50:38 13° WSW
Cosmos 1624 Rocket 4.2 03:43:38 10° SSW 03:48:55 79° ESE 03:54:15 10° NNE
Cosmos 1328 Rocket 3.5 03:46:36 10° SSW 03:50:57 75° WNW 03:55:21 10° N
Cosmos 2251 Rocket 4.4 03:48:23 10° NW 03:52:41 26° W 03:56:56 10° SSW
Cosmos 1743 2.6 03:49:38 10° NNW 03:53:23 65° W 03:57:08 10° S
Cosmos 2098 Rocket 2.5 03:51:15 10° NNW 03:54:02 38° W 03:56:44 10° SSW
CZ-4C R/B 3.4 03:50:05 10° S 03:54:05 63° WSW 03:58:18 10° NNW
YAOGAN 6 3.1 03:56:11 10° N 03:59:37 39° WNW 04:03:02 10° SW
Cosmos 1441 Rocket 3.0 03:56:29 10° SSW 04:00:11 82° W 04:03:56 10° N
CZ-2C R/B 3.3 03:56:05 10° SSW 04:00:38 31° W 04:05:17 10° NNW
Cosmos 1371 Rocket 4.0 03:55:44 10° SSW 04:01:02 79° WNW 04:06:20 10° NNE
Envisat 3.1 03:57:20 10° N 04:02:19 58° WNW 04:07:18 10° SSW
USA 234 3.3 03:55:50 10° NE 04:02:24 87° NNW 04:08:58 10° WSW
Tiangong -0.2 04:02:10 10° WSW 04:04:17 17° SSW 04:06:28 10° SSE
PSLV R/B 3.5 04:00:23 10° NNE 04:04:46 84° WNW 04:09:05 10° SSW
ALOS 4.0 04:03:04 10° NNW 04:05:51 16° WNW 04:08:38 10° W
Cosmos 1515 Rocket 3.7 04:02:03 10° S 04:06:27 84° E 04:10:56 10° N
BREEZE M DEB (TANK) 4.4 03:47:29 11° W 04:08:09 83° N 04:12:57 10° E
USA 307 3.9 04:04:17 10° SSW 04:08:14 44° SE 04:12:12 10° ENE
Cosmos 2369 3.8 04:02:56 10° NNW 04:08:40 90° SW 04:14:20 10° SSE
BREEZE M DEB (TANK) 4.1 03:56:32 10° SW 04:09:28 58° SSE 04:13:16 10° E
Meteor 1-11 Rocket 4.1 04:04:06 10° NNW 04:09:49 50° W 04:15:32 10° SSW
Meteor 2-9 Rocket 4.5 04:03:58 10° N 04:09:50 80° ENE 04:15:32 10° SSE
Cosmos 1470 Rocket 3.6 04:06:36 10° NNW 04:10:50 56° W 04:15:04 10° S
Cosmos 1802 Rocket 4.2 04:04:57 10° S 04:11:21 84° E 04:17:44 10° N
SL-08 R/B 4.1 04:08:07 10° SSW 04:12:05 28° W 04:16:07 10° NW
Cosmos 1980 Rocket 2.2 04:08:42 10° NNW 04:14:20 88° WSW 04:19:56 10° SSE
Cosmos 1151 Rocket 4.0 04:12:26 10° SW 04:16:01 26° WNW 04:19:38 10° NNW
Cosmos 2278 4.4 04:12:32 10° NNW 04:18:10 60° ENE 04:23:44 10° SE
CZ-2C R/B 4.0 04:15:59 10° NNW 04:19:14 17° WNW 04:22:25 10° W
SKYMED 3 4.5 04:15:53 10° SSE 04:20:05 81° WSW 04:24:18 10° NNW
